Time,TemperatureF,DewpointF,PressureIn,WindDirection,WindDirectionDegrees,WindSpeedMPH,WindSpeedGustMPH,Humidity,HourlyPrecipIn,Conditions,Clouds,dailyrainin,SoftwareType,DateUTC
2013-05-05 00:00:00,58.9,54.0,30.51,North,4,2.1,2.4,85,0.00,NA,NA,-99.99,BCS,2013-05-05 07:00:00,
2013-05-05 00:10:00,58.5,54.0,30.50,North,10,3.0,3.9,85,0.00,NA,NA,-99.99,BCS,2013-05-05 07:10:00,
2013-05-05 00:20:00,58.3,52.0,30.50,NE,51,0.9,2.1,80,0.00,NA,NA,-99.99,BCS,2013-05-05 07:20:00,
2013-05-05 00:25:00,58.3,51.0,30.51,NNW,344,2.4,3.6,77,0.00,NA,NA,-99.99,BCS,2013-05-05 07:25:00,
2013-05-05 00:30:00,58.3,51.0,30.50,NNW,337,1.8,3.0,77,0.00,NA,NA,-99.99,BCS,2013-05-05 07:30:00,
2013-05-05 00:35:00,58.1,51.0,30.51,NW,316,2.1,2.7,77,0.00,NA,NA,-99.99,BCS,2013-05-05 07:35:00,
2013-05-05 00:40:00,57.9,51.0,30.50,North,351,3.9,5.7,78,0.00,NA,NA,-99.99,BCS,2013-05-05 07:40:00,
2013-05-05 00:45:00,57.8,51.0,30.51,NNW,338,3.0,5.7,78,0.00,NA,NA,-99.99,BCS,2013-05-05 07:45:00,
2013-05-05 00:50:00,57.8,51.0,30.50,North,358,0.3,3.9,78,0.00,NA,NA,-99.99,BCS,2013-05-05 07:50:00,
2013-05-05 00:55:00,57.7,51.0,30.50,NNW,330,1.8,3.0,78,0.00,NA,NA,-99.99,BCS,2013-05-05 07:55:00,
2013-05-05 01:00:00,57.5,52.0,30.50,SSW,209,0.6,3.0,80,0.00,NA,NA,-99.99,BCS,2013-05-05 08:00:00,
2013-05-05 01:10:00,57.1,51.0,30.50,SSW,213,1.5,2.4,81,0.00,NA,NA,-99.99,BCS,2013-05-05 08:10:00,
2013-05-05 01:15:00,56.9,52.0,30.50,SSW,213,1.5,2.4,83,0.00,NA,NA,-99.99,BCS,2013-05-05 08:15:00,
2013-05-05 01:20:00,57.0,52.0,30.50,SSE,164,1.5,2.7,84,0.00,NA,NA,-99.99,BCS,2013-05-05 08:20:00,
2013-05-05 01:25:00,56.9,52.0,30.50,South,177,3.6,5.7,83,0.00,NA,NA,-99.99,BCS,2013-05-05 08:25:00,
2013-05-05 01:30:00,57.6,53.0,30.50,SSW,203,3.6,8.1,83,0.00,NA,NA,-99.99,BCS,2013-05-05 08:30:00,
2013-05-05 01:35:00,57.9,52.0,30.50,SSE,164,1.5,7.5,81,0.00,NA,NA,-99.99,BCS,2013-05-05 08:35:00,
2013-05-05 01:40:00,58.1,52.0,30.50,SSE,152,3.9,4.5,81,0.00,NA,NA,-99.99,BCS,2013-05-05 08:40:00,
2013-05-05 01:45:00,58.3,52.0,30.50,SSE,161,1.5,5.4,79,0.00,NA,NA,-99.99,BCS,2013-05-05 08:45:00,
2013-05-05 01:50:00,58.6,53.0,30.50,NNW,338,1.2,7.8,81,0.00,NA,NA,-99.99,BCS,2013-05-05 08:50:00,
2013-05-05 02:00:00,58.2,52.0,30.50,South,170,3.9,10.8,80,0.00,NA,NA,-99.99,BCS,2013-05-05 09:00:00,
2013-05-05 02:10:00,58.2,52.0,30.51,SW,223,3.0,4.5,80,0.00,NA,NA,-99.99,BCS,2013-05-05 09:10:00,
2013-05-05 02:15:00,58.5,52.0,30.50,West,278,1.5,14.7,78,0.00,NA,NA,-99.99,BCS,2013-05-05 09:15:00,
2013-05-05 02:20:00,58.6,51.0,30.50,SSW,202,3.6,5.7,79,0.00,NA,NA,-99.99,BCS,2013-05-05 09:20:00,
2013-05-05 02:25:00,58.2,51.0,30.50,South,190,3.0,6.9,79,0.00,NA,NA,-99.99,BCS,2013-05-05 09:25:00,
2013-05-05 02:30:00,58.0,52.0,30.50,SE,145,2.7,6.9,80,0.00,NA,NA,-99.99,BCS,2013-05-05 09:30:00,
2013-05-05 02:35:00,58.2,52.0,30.50,SSE,161,1.8,9.6,80,0.00,NA,NA,-99.99,BCS,2013-05-05 09:35:00,
2013-05-05 02:40:00,58.1,52.0,30.50,SSE,165,2.1,4.5,81,0.00,NA,NA,-99.99,BCS,2013-05-05 09:40:00,
2013-05-05 02:45:00,58.0,52.0,30.51,ENE,74,0.3,2.7,81,0.00,NA,NA,-99.99,BCS,2013-05-05 09:45:00,
2013-05-05 02:50:00,57.7,52.0,30.50,ENE,70,1.5,4.8,82,0.00,NA,NA,-99.99,BCS,2013-05-05 09:50:00,
2013-05-05 02:55:00,57.6,52.0,30.50,SSW,203,0.6,3.6,82,0.00,NA,NA,-99.99,BCS,2013-05-05 09:55:00,
2013-05-05 03:00:00,57.3,52.0,30.50,SSW,203,0.9,1.5,83,0.00,NA,NA,-99.99,BCS,2013-05-05 10:00:00,
2013-05-05 03:05:00,57.2,52.0,30.51,SE,130,0.9,2.1,83,0.00,NA,NA,-99.99,BCS,2013-05-05 10:05:00,
2013-05-05 03:10:00,57.3,52.0,30.51,NNE,18,1.8,3.0,84,0.00,NA,NA,-99.99,BCS,2013-05-05 10:10:00,
2013-05-05 03:15:00,57.3,52.0,30.51,NNE,19,1.5,3.0,83,0.00,NA,NA,-99.99,BCS,2013-05-05 10:15:00,
2013-05-05 03:25:00,56.9,52.0,30.51,East,100,1.5,3.3,84,0.00,NA,NA,-99.99,BCS,2013-05-05 10:25:00,
2013-05-05 03:30:00,57.2,53.0,30.51,SSW,195,3.6,7.8,85,0.00,NA,NA,-99.99,BCS,2013-05-05 10:30:00,
2013-05-05 03:35:00,58.2,53.0,30.52,South,190,4.8,12.6,81,0.00,NA,NA,-99.99,BCS,2013-05-05 10:35:00,
2013-05-05 03:40:00,58.5,52.0,30.52,South,187,2.4,12.3,80,0.00,NA,NA,-99.99,BCS,2013-05-05 10:40:00,
2013-05-05 03:45:00,58.6,53.0,30.51,SW,219,4.5,5.1,79,0.00,NA,NA,-99.99,BCS,2013-05-05 10:45:00,
2013-05-05 03:55:00,58.4,51.0,30.51,SSW,194,2.7,10.5,78,0.00,NA,NA,-99.99,BCS,2013-05-05 10:55:00,
2013-05-05 04:00:00,58.3,51.0,30.52,SE,126,2.1,7.2,79,0.00,NA,NA,-99.99,BCS,2013-05-05 11:00:00,
2013-05-05 04:05:00,58.3,52.0,30.52,SSE,163,1.5,9.0,79,0.00,NA,NA,-99.99,BCS,2013-05-05 11:05:00,
2013-05-05 04:10:00,58.6,52.0,30.52,SSE,165,4.5,10.8,79,0.00,NA,NA,-99.99,BCS,2013-05-05 11:10:00,
2013-05-05 04:15:00,58.5,51.0,30.51,SW,226,7.5,11.4,79,0.00,NA,NA,-99.99,BCS,2013-05-05 11:15:00,
2013-05-05 04:20:00,58.6,53.0,30.52,South,177,6.9,14.1,80,0.00,NA,NA,-99.99,BCS,2013-05-05 11:20:00,
2013-05-05 04:25:00,58.7,53.0,30.51,South,177,7.5,12.6,80,0.00,NA,NA,-99.99,BCS,2013-05-05 11:25:00,
2013-05-05 04:30:00,58.6,53.0,30.52,South,180,3.9,10.2,81,0.00,NA,NA,-99.99,BCS,2013-05-05 11:30:00,
2013-05-05 04:35:00,58.5,52.0,30.52,SW,214,6.6,12.3,81,0.00,NA,NA,-99.99,BCS,2013-05-05 11:35:00,
2013-05-05 04:40:00,58.5,53.0,30.52,South,176,3.9,12.3,81,0.00,NA,NA,-99.99,BCS,2013-05-05 11:40:00,
2013-05-05 04:45:00,58.6,53.0,30.52,SSE,167,4.5,9.3,80,0.00,NA,NA,-99.99,BCS,2013-05-05 11:45:00,
2013-05-05 04:50:00,58.8,53.0,30.52,SSE,154,2.1,5.7,80,0.00,NA,NA,-99.99,BCS,2013-05-05 11:50:00,
2013-05-05 04:55:00,58.8,53.0,30.52,SSW,201,4.5,6.6,80,0.00,NA,NA,-99.99,BCS,2013-05-05 11:55:00,
2013-05-05 05:05:00,58.8,53.0,30.52,SSE,156,5.4,11.1,81,0.00,NA,NA,-99.99,BCS,2013-05-05 12:05:00,
2013-05-05 05:10:00,58.7,53.0,30.52,South,180,5.4,11.4,81,0.00,NA,NA,-99.99,BCS,2013-05-05 12:10:00,
2013-05-05 05:15:00,58.9,53.0,30.52,South,175,3.6,12.9,81,0.00,NA,NA,-99.99,BCS,2013-05-05 12:15:00,
2013-05-05 05:20:00,59.0,53.0,30.51,SSW,197,3.0,11.7,82,0.00,NA,NA,-99.99,BCS,2013-05-05 12:20:00,
2013-05-05 05:25:00,58.9,53.0,30.51,SSE,151,4.2,14.7,81,0.00,NA,NA,-99.99,BCS,2013-05-05 12:25:00,
2013-05-05 05:30:00,58.9,53.0,30.50,SSW,199,4.8,14.1,81,0.00,NA,NA,-99.99,BCS,2013-05-05 12:30:00,
2013-05-05 05:40:00,59.0,53.0,30.51,South,187,5.1,10.8,81,0.00,NA,NA,-99.99,BCS,2013-05-05 12:40:00,
2013-05-05 05:45:00,59.2,53.0,30.51,SSE,165,6.6,10.8,81,0.00,NA,NA,-99.99,BCS,2013-05-05 12:45:00,
2013-05-05 05:50:00,59.1,53.0,30.51,SSE,155,6.0,21.3,81,0.00,NA,NA,-99.99,BCS,2013-05-05 12:50:00,
2013-05-05 05:55:00,58.9,53.0,30.52,SSE,151,2.4,9.9,82,0.00,NA,NA,-99.99,BCS,2013-05-05 12:55:00,
2013-05-05 06:00:00,58.7,53.0,30.52,SSW,194,4.5,18.0,82,0.00,NA,NA,-99.99,BCS,2013-05-05 13:00:00,
2013-05-05 06:10:00,58.7,53.0,30.52,SSE,166,4.5,12.6,82,0.00,NA,NA,-99.99,BCS,2013-05-05 13:10:00,
2013-05-05 06:15:00,58.7,53.0,30.52,South,182,6.9,8.7,82,0.00,NA,NA,-99.99,BCS,2013-05-05 13:15:00,
2013-05-05 06:20:00,58.9,53.0,30.51,North,7,3.6,19.2,81,0.00,NA,NA,-99.99,BCS,2013-05-05 13:20:00,
2013-05-05 06:25:00,59.0,53.0,30.52,SSE,165,5.7,14.4,81,0.00,NA,NA,-99.99,BCS,2013-05-05 13:25:00,
2013-05-05 06:30:00,58.8,53.0,30.52,SSE,168,6.0,20.7,81,0.00,NA,NA,-99.99,BCS,2013-05-05 13:30:00,
2013-05-05 06:35:00,58.7,53.0,30.52,South,178,6.0,11.7,82,0.00,NA,NA,-99.99,BCS,2013-05-05 13:35:00,
2013-05-05 06:45:00,59.2,53.0,30.52,SSE,162,6.0,11.7,80,0.00,NA,NA,-99.99,BCS,2013-05-05 13:45:00,
2013-05-05 06:50:00,58.9,53.0,30.52,SW,226,5.1,13.5,81,0.00,NA,NA,-99.99,BCS,2013-05-05 13:50:00,
2013-05-05 06:55:00,58.9,53.0,30.52,South,170,6.0,9.9,80,0.00,NA,NA,-99.99,BCS,2013-05-05 13:55:00,
2013-05-05 07:00:00,59.2,52.0,30.53,SSE,168,5.7,12.6,79,0.00,NA,NA,-99.99,BCS,2013-05-05 14:00:00,
2013-05-05 07:10:00,59.6,53.0,30.53,SSE,165,9.9,14.4,75,0.00,NA,NA,-99.99,BCS,2013-05-05 14:10:00,
2013-05-05 07:15:00,59.7,52.0,30.53,SSE,156,7.2,24.9,75,0.00,NA,NA,-99.99,BCS,2013-05-05 14:15:00,
2013-05-05 07:20:00,59.8,52.0,30.54,SSE,164,7.8,17.1,74,0.00,NA,NA,-99.99,BCS,2013-05-05 14:20:00,
2013-05-05 07:25:00,60.2,52.0,30.54,SSW,194,7.2,14.4,75,0.00,NA,NA,-99.99,BCS,2013-05-05 14:25:00,
2013-05-05 07:30:00,60.2,51.0,30.54,SSE,160,10.8,13.2,73,0.00,NA,NA,-99.99,BCS,2013-05-05 14:30:00,
2013-05-05 07:35:00,60.3,51.0,30.54,South,171,7.8,18.6,73,0.00,NA,NA,-99.99,BCS,2013-05-05 14:35:00,
2013-05-05 07:40:00,60.5,51.0,30.53,SSW,194,6.0,12.6,73,0.00,NA,NA,-99.99,BCS,2013-05-05 14:40:00,
2013-05-05 07:45:00,60.6,52.0,30.54,South,185,7.5,18.0,70,0.00,NA,NA,-99.99,BCS,2013-05-05 14:45:00,
2013-05-05 07:50:00,60.5,51.0,30.54,South,178,10.5,17.4,72,0.00,NA,NA,-99.99,BCS,2013-05-05 14:50:00,
2013-05-05 07:55:00,60.6,52.0,30.54,South,179,6.0,20.1,71,0.00,NA,NA,-99.99,BCS,2013-05-05 14:55:00,
2013-05-05 08:00:00,60.3,51.0,30.55,SSE,168,6.6,13.8,72,0.00,NA,NA,-99.99,BCS,2013-05-05 15:00:00,
2013-05-05 08:05:00,60.3,51.0,30.54,South,182,9.6,15.9,72,0.00,NA,NA,-99.99,BCS,2013-05-05 15:05:00,
2013-05-05 08:10:00,60.5,51.0,30.54,South,172,5.4,15.9,72,0.00,NA,NA,-99.99,BCS,2013-05-05 15:10:00,
2013-05-05 08:15:00,60.8,52.0,30.55,South,177,6.3,8.4,71,0.00,NA,NA,-99.99,BCS,2013-05-05 15:15:00,
2013-05-05 08:20:00,60.7,52.0,30.55,SW,221,7.8,8.1,72,0.00,NA,NA,-99.99,BCS,2013-05-05 15:20:00,
2013-05-05 08:25:00,60.7,52.0,30.56,SSE,161,3.0,9.6,72,0.00,NA,NA,-99.99,BCS,2013-05-05 15:25:00,
2013-05-05 08:30:00,60.7,52.0,30.56,East,80,2.1,6.0,73,0.00,NA,NA,-99.99,BCS,2013-05-05 15:30:00,
2013-05-05 08:35:00,60.7,53.0,30.56,SE,139,0.9,5.1,75,0.00,NA,NA,-99.99,BCS,2013-05-05 15:35:00,
2013-05-05 08:40:00,60.6,54.0,30.56,NE,35,0.9,4.8,77,0.00,NA,NA,-99.99,BCS,2013-05-05 15:40:00,
2013-05-05 08:45:00,60.3,53.0,30.56,ENE,69,1.2,3.9,77,0.00,NA,NA,-99.99,BCS,2013-05-05 15:45:00,
2013-05-05 08:50:00,60.1,53.0,30.56,SW,235,3.0,5.1,78,0.00,NA,NA,-99.99,BCS,2013-05-05 15:50:00,
2013-05-05 08:55:00,60.0,53.0,30.57,WSW,249,0.6,7.8,79,0.00,NA,NA,-99.99,BCS,2013-05-05 15:55:00,
2013-05-05 09:05:00,60.7,54.0,30.57,SW,227,2.1,5.4,79,0.00,NA,NA,-99.99,BCS,2013-05-05 16:05:00,
2013-05-05 09:10:00,61.0,54.0,30.57,SW,214,1.8,7.8,78,0.00,NA,NA,-99.99,BCS,2013-05-05 16:10:00,
2013-05-05 09:15:00,61.1,54.0,30.58,East,89,1.8,5.1,78,0.00,NA,NA,-99.99,BCS,2013-05-05 16:15:00,
2013-05-05 09:20:00,61.4,54.0,30.57,South,190,1.5,6.9,78,0.00,NA,NA,-99.99,BCS,2013-05-05 16:20:00,
2013-05-05 09:25:00,61.7,54.0,30.57,SSE,165,4.5,4.5,76,0.00,NA,NA,-99.99,BCS,2013-05-05 16:25:00,
2013-05-05 09:30:00,61.9,54.0,30.58,ESE,118,0.9,4.5,76,0.00,NA,NA,-99.99,BCS,2013-05-05 16:30:00,
2013-05-05 09:35:00,61.6,54.0,30.57,SSE,166,1.5,6.6,75,0.00,NA,NA,-99.99,BCS,2013-05-05 16:35:00,
2013-05-05 09:40:00,62.0,54.0,30.58,East,88,2.1,6.0,75,0.00,NA,NA,-99.99,BCS,2013-05-05 16:40:00,
2013-05-05 09:45:00,62.2,54.0,30.58,SSE,167,3.0,4.8,75,0.00,NA,NA,-99.99,BCS,2013-05-05 16:45:00,
2013-05-05 09:50:00,62.2,54.0,30.58,South,177,3.3,6.6,74,0.00,NA,NA,-99.99,BCS,2013-05-05 16:50:00,
2013-05-05 09:55:00,62.3,53.0,30.58,SE,126,0.3,6.0,74,0.00,NA,NA,-99.99,BCS,2013-05-05 16:55:00,
2013-05-05 10:00:00,62.7,54.0,30.58,SSE,164,2.1,4.5,73,0.00,NA,NA,-99.99,BCS,2013-05-05 17:00:00,
2013-05-05 10:05:00,63.0,53.0,30.58,South,186,4.2,7.8,71,0.00,NA,NA,-99.99,BCS,2013-05-05 17:05:00,
2013-05-05 10:15:00,63.6,53.0,30.58,SSE,151,2.1,11.1,68,0.00,NA,NA,-99.99,BCS,2013-05-05 17:15:00,
2013-05-05 10:20:00,63.8,53.0,30.58,South,179,3.0,5.7,68,0.00,NA,NA,-99.99,BCS,2013-05-05 17:20:00,
2013-05-05 10:25:00,64.0,53.0,30.58,East,84,7.2,9.3,67,0.00,NA,NA,-99.99,BCS,2013-05-05 17:25:00,
2013-05-05 10:30:00,64.9,54.0,30.58,SSE,152,2.4,9.3,67,0.00,NA,NA,-99.99,BCS,2013-05-05 17:30:00,
2013-05-05 10:35:00,65.2,54.0,30.59,SSE,160,5.4,6.9,67,0.00,NA,NA,-99.99,BCS,2013-05-05 17:35:00,
2013-05-05 10:40:00,65.2,53.0,30.59,South,171,4.5,12.6,65,0.00,NA,NA,-99.99,BCS,2013-05-05 17:40:00,
2013-05-05 10:45:00,65.6,53.0,30.59,SSW,192,3.9,8.1,64,0.00,NA,NA,-99.99,BCS,2013-05-05 17:45:00,
2013-05-05 10:50:00,64.7,53.0,30.59,SSE,161,4.8,7.8,65,0.00,NA,NA,-99.99,BCS,2013-05-05 17:50:00,
2013-05-05 10:55:00,64.1,52.0,30.59,SSW,195,4.2,11.7,64,0.00,NA,NA,-99.99,BCS,2013-05-05 17:55:00,
2013-05-05 11:05:00,64.5,53.0,30.59,SSE,163,5.7,9.3,63,0.00,NA,NA,-99.99,BCS,2013-05-05 18:05:00,
2013-05-05 11:10:00,64.5,53.0,30.59,South,169,10.2,10.2,64,0.00,NA,NA,-99.99,BCS,2013-05-05 18:10:00,
2013-05-05 11:15:00,64.8,52.0,30.59,SSE,159,6.0,10.2,64,0.00,NA,NA,-99.99,BCS,2013-05-05 18:15:00,
2013-05-05 11:20:00,65.1,52.0,30.59,ESE,121,2.7,8.1,64,0.00,NA,NA,-99.99,BCS,2013-05-05 18:20:00,
2013-05-05 11:25:00,65.7,52.0,30.59,SSE,167,4.5,10.5,61,0.00,NA,NA,-99.99,BCS,2013-05-05 18:25:00,
2013-05-05 11:30:00,66.5,53.0,30.59,South,181,4.5,10.5,62,0.00,NA,NA,-99.99,BCS,2013-05-05 18:30:00,
2013-05-05 11:35:00,68.2,54.0,30.59,South,180,5.4,7.2,60,0.00,NA,NA,-99.99,BCS,2013-05-05 18:35:00,
2013-05-05 11:40:00,67.4,53.0,30.59,SSE,162,3.6,9.3,58,0.00,NA,NA,-99.99,BCS,2013-05-05 18:40:00,
2013-05-05 11:45:00,66.7,52.0,30.59,South,185,4.5,10.2,59,0.00,NA,NA,-99.99,BCS,2013-05-05 18:45:00,
2013-05-05 11:50:00,66.9,52.0,30.59,SE,136,3.3,9.3,60,0.00,NA,NA,-99.99,BCS,2013-05-05 18:50:00,
2013-05-05 11:55:00,67.7,54.0,30.59,SSW,205,5.1,7.8,60,0.00,NA,NA,-99.99,BCS,2013-05-05 18:55:00,
2013-05-05 12:00:00,68.1,53.0,30.59,NE,41,2.1,6.3,59,0.00,NA,NA,-99.99,BCS,2013-05-05 19:00:00,
2013-05-05 12:05:00,68.4,52.0,30.59,SSE,159,4.2,6.3,57,0.00,NA,NA,-99.99,BCS,2013-05-05 19:05:00,
2013-05-05 12:10:00,67.9,52.0,30.59,South,172,5.1,8.4,56,0.00,NA,NA,-99.99,BCS,2013-05-05 19:10:00,
2013-05-05 12:15:00,68.4,53.0,30.59,South,182,4.5,7.5,57,0.00,NA,NA,-99.99,BCS,2013-05-05 19:15:00,
2013-05-05 12:20:00,69.2,51.0,30.59,SSW,199,3.3,8.7,55,0.00,NA,NA,-99.99,BCS,2013-05-05 19:20:00,
2013-05-05 12:25:00,68.7,52.0,30.59,South,191,6.6,11.7,54,0.00,NA,NA,-99.99,BCS,2013-05-05 19:25:00,
2013-05-05 12:30:00,68.0,51.0,30.58,SSE,149,5.4,12.9,55,0.00,NA,NA,-99.99,BCS,2013-05-05 19:30:00,
2013-05-05 12:35:00,68.9,52.0,30.59,SE,133,3.3,12.6,55,0.00,NA,NA,-99.99,BCS,2013-05-05 19:35:00,
2013-05-05 12:45:00,70.1,53.0,30.58,South,171,5.4,11.1,55,0.00,NA,NA,-99.99,BCS,2013-05-05 19:45:00,
2013-05-05 12:50:00,70.4,52.0,30.58,South,174,4.5,9.0,53,0.00,NA,NA,-99.99,BCS,2013-05-05 19:50:00,
2013-05-05 12:55:00,69.3,50.0,30.58,South,178,4.5,9.9,52,0.00,NA,NA,-99.99,BCS,2013-05-05 19:55:00,
2013-05-05 13:00:00,69.9,52.0,30.58,South,174,4.2,13.2,53,0.00,NA,NA,-99.99,BCS,2013-05-05 20:00:00,
2013-05-05 13:10:00,70.6,54.0,30.58,SSE,148,6.9,8.7,52,0.00,NA,NA,-99.99,BCS,2013-05-05 20:10:00,
2013-05-05 13:20:00,70.6,53.0,30.58,ESE,121,2.4,12.0,54,0.00,NA,NA,-99.99,BCS,2013-05-05 20:20:00,
2013-05-05 13:25:00,71.9,53.0,30.58,SSE,152,2.7,11.4,53,0.00,NA,NA,-99.99,BCS,2013-05-05 20:25:00,
2013-05-05 13:30:00,71.5,53.0,30.58,SSW,210,9.9,10.5,52,0.00,NA,NA,-99.99,BCS,2013-05-05 20:30:00,
2013-05-05 13:35:00,69.9,53.0,30.58,SSE,155,6.9,12.0,55,0.00,NA,NA,-99.99,BCS,2013-05-05 20:35:00,
2013-05-05 13:40:00,70.0,53.0,30.58,SSE,164,5.1,11.4,55,0.00,NA,NA,-99.99,BCS,2013-05-05 20:40:00,
2013-05-05 13:45:00,69.7,52.0,30.58,West,274,2.4,10.5,56,0.00,NA,NA,-99.99,BCS,2013-05-05 20:45:00,
2013-05-05 13:50:00,70.5,55.0,30.58,SW,215,7.5,13.2,55,0.00,NA,NA,-99.99,BCS,2013-05-05 20:50:00,
2013-05-05 13:55:00,70.7,53.0,30.58,South,180,6.0,14.7,56,0.00,NA,NA,-99.99,BCS,2013-05-05 20:55:00,
2013-05-05 14:00:00,69.5,53.0,30.58,SSE,156,4.5,18.0,56,0.00,NA,NA,-99.99,BCS,2013-05-05 21:00:00,
2013-05-05 14:05:00,69.4,52.0,30.58,South,182,11.1,11.1,56,0.00,NA,NA,-99.99,BCS,2013-05-05 21:05:00,
2013-05-05 14:15:00,70.4,52.0,30.58,SSW,210,6.0,11.4,54,0.00,NA,NA,-99.99,BCS,2013-05-05 21:15:00,
2013-05-05 14:20:00,70.3,53.0,30.59,SW,217,4.5,11.1,55,0.00,NA,NA,-99.99,BCS,2013-05-05 21:20:00,
2013-05-05 14:25:00,70.5,52.0,30.59,SSW,194,5.7,12.0,54,0.00,NA,NA,-99.99,BCS,2013-05-05 21:25:00,
2013-05-05 14:30:00,70.5,54.0,30.58,South,171,5.1,12.0,54,0.00,NA,NA,-99.99,BCS,2013-05-05 21:30:00,
2013-05-05 14:35:00,69.5,52.0,30.58,South,169,6.6,12.9,54,0.00,NA,NA,-99.99,BCS,2013-05-05 21:35:00,
2013-05-05 14:40:00,70.0,53.0,30.59,SSE,163,4.8,13.5,56,0.00,NA,NA,-99.99,BCS,2013-05-05 21:40:00,
2013-05-05 14:45:00,68.7,53.0,30.59,SSW,205,13.2,16.2,57,0.00,NA,NA,-99.99,BCS,2013-05-05 21:45:00,
2013-05-05 14:50:00,68.3,52.0,30.58,SE,139,7.5,14.4,58,0.00,NA,NA,-99.99,BCS,2013-05-05 21:50:00,
2013-05-05 14:55:00,68.3,53.0,30.59,SSW,196,7.2,16.2,57,0.00,NA,NA,-99.99,BCS,2013-05-05 21:55:00,
2013-05-05 15:00:00,68.3,53.0,30.59,South,179,6.6,17.7,57,0.00,NA,NA,-99.99,BCS,2013-05-05 22:00:00,
2013-05-05 15:10:00,68.8,52.0,30.59,SSW,193,5.4,14.1,57,0.00,NA,NA,-99.99,BCS,2013-05-05 22:10:00,
2013-05-05 15:15:00,69.1,53.0,30.59,SSW,193,10.5,13.8,57,0.00,NA,NA,-99.99,BCS,2013-05-05 22:15:00,
2013-05-05 15:20:00,69.1,53.0,30.59,SW,224,5.4,15.0,56,0.00,NA,NA,-99.99,BCS,2013-05-05 22:20:00,
2013-05-05 15:25:00,68.7,53.0,30.59,South,181,9.9,11.7,57,0.00,NA,NA,-99.99,BCS,2013-05-05 22:25:00,
2013-05-05 15:30:00,68.3,53.0,30.59,South,191,7.2,14.1,60,0.00,NA,NA,-99.99,BCS,2013-05-05 22:30:00,
2013-05-05 15:35:00,67.2,53.0,30.59,South,185,7.5,18.3,62,0.00,NA,NA,-99.99,BCS,2013-05-05 22:35:00,
2013-05-05 15:45:00,65.9,53.0,30.59,South,174,7.8,17.7,64,0.00,NA,NA,-99.99,BCS,2013-05-05 22:45:00,
2013-05-05 15:50:00,65.4,53.0,30.59,South,170,6.3,18.0,66,0.00,NA,NA,-99.99,BCS,2013-05-05 22:50:00,
2013-05-05 15:55:00,65.7,54.0,30.59,South,179,10.5,27.6,64,0.00,NA,NA,-99.99,BCS,2013-05-05 22:55:00,
2013-05-05 16:00:00,66.6,54.0,30.59,South,176,9.9,17.1,64,0.00,NA,NA,-99.99,BCS,2013-05-05 23:00:00,
2013-05-05 16:05:00,65.5,53.0,30.59,SSW,200,6.3,21.9,64,0.00,NA,NA,-99.99,BCS,2013-05-05 23:05:00,
2013-05-05 16:10:00,66.0,53.0,30.59,SSW,194,7.8,12.6,64,0.00,NA,NA,-99.99,BCS,2013-05-05 23:10:00,
2013-05-05 16:15:00,66.2,54.0,30.59,South,180,7.8,15.3,64,0.00,NA,NA,-99.99,BCS,2013-05-05 23:15:00,
2013-05-05 16:20:00,67.7,55.0,30.59,SSW,212,4.5,13.2,63,0.00,NA,NA,-99.99,BCS,2013-05-05 23:20:00,
2013-05-05 16:25:00,67.7,54.0,30.59,SSE,151,7.8,18.6,61,0.00,NA,NA,-99.99,BCS,2013-05-05 23:25:00,
2013-05-05 16:30:00,69.5,55.0,30.60,South,185,5.7,15.3,61,0.00,NA,NA,-99.99,BCS,2013-05-05 23:30:00,
2013-05-05 16:35:00,68.1,54.0,30.60,SSE,156,7.8,15.6,59,0.00,NA,NA,-99.99,BCS,2013-05-05 23:35:00,
2013-05-05 16:40:00,67.7,54.0,30.60,SSW,212,12.9,15.6,61,0.00,NA,NA,-99.99,BCS,2013-05-05 23:40:00,
2013-05-05 16:45:00,66.6,54.0,30.61,SSW,200,4.5,15.6,62,0.00,NA,NA,-99.99,BCS,2013-05-05 23:45:00,
2013-05-05 16:50:00,67.5,53.0,30.61,South,175,7.5,10.2,62,0.00,NA,NA,-99.99,BCS,2013-05-05 23:50:00,
2013-05-05 17:00:00,67.2,53.0,30.61,South,190,6.6,14.1,62,0.00,NA,NA,-99.99,BCS,2013-05-06 00:00:00,
2013-05-05 17:10:00,66.8,54.0,30.61,SSW,202,8.1,12.0,63,0.00,NA,NA,-99.99,BCS,2013-05-06 00:10:00,
2013-05-05 17:15:00,67.0,54.0,30.61,SSE,155,4.8,19.8,62,0.00,NA,NA,-99.99,BCS,2013-05-06 00:15:00,
2013-05-05 17:20:00,67.0,54.0,30.61,SW,217,6.3,14.7,63,0.00,NA,NA,-99.99,BCS,2013-05-06 00:20:00,
2013-05-05 17:25:00,66.5,54.0,30.61,South,191,11.1,16.5,63,0.00,NA,NA,-99.99,BCS,2013-05-06 00:25:00,
2013-05-05 17:30:00,66.1,53.0,30.61,South,190,13.2,17.7,63,0.00,NA,NA,-99.99,BCS,2013-05-06 00:30:00,
2013-05-05 17:35:00,66.4,53.0,30.61,South,176,7.8,15.3,63,0.00,NA,NA,-99.99,BCS,2013-05-06 00:35:00,
2013-05-05 17:40:00,66.2,53.0,30.61,SW,215,11.7,18.6,63,0.00,NA,NA,-99.99,BCS,2013-05-06 00:40:00,
2013-05-05 17:45:00,65.7,54.0,30.61,SSW,210,6.9,18.6,65,0.00,NA,NA,-99.99,BCS,2013-05-06 00:45:00,
2013-05-05 17:50:00,66.1,53.0,30.61,SSW,192,8.7,15.9,64,0.00,NA,NA,-99.99,BCS,2013-05-06 00:50:00,
2013-05-05 17:55:00,65.5,54.0,30.61,South,191,6.6,13.2,65,0.00,NA,NA,-99.99,BCS,2013-05-06 00:55:00,
2013-05-05 18:05:00,66.0,54.0,30.62,SSE,168,5.7,10.2,65,0.00,NA,NA,-99.99,BCS,2013-05-06 01:05:00,
2013-05-05 18:15:00,65.8,54.0,30.62,South,179,4.8,9.0,66,0.00,NA,NA,-99.99,BCS,2013-05-06 01:15:00,
2013-05-05 18:20:00,65.6,54.0,30.62,SW,220,4.8,11.1,66,0.00,NA,NA,-99.99,BCS,2013-05-06 01:20:00,
2013-05-05 18:25:00,64.8,54.0,30.61,South,173,9.3,15.0,67,0.00,NA,NA,-99.99,BCS,2013-05-06 01:25:00,
2013-05-05 18:30:00,64.6,54.0,30.62,SSW,194,6.9,15.6,68,0.00,NA,NA,-99.99,BCS,2013-05-06 01:30:00,
2013-05-05 18:40:00,64.0,54.0,30.63,SSW,201,3.0,11.4,70,0.00,NA,NA,-99.99,BCS,2013-05-06 01:40:00,
2013-05-05 18:45:00,64.4,54.0,30.63,SSE,164,1.5,7.5,70,0.00,NA,NA,-99.99,BCS,2013-05-06 01:45:00,
2013-05-05 18:50:00,64.2,54.0,30.62,SW,232,5.1,9.3,70,0.00,NA,NA,-99.99,BCS,2013-05-06 01:50:00,
2013-05-05 18:55:00,63.8,54.0,30.62,SSE,166,3.3,9.3,71,0.00,NA,NA,-99.99,BCS,2013-05-06 01:55:00,
2013-05-05 19:00:00,64.4,54.0,30.63,WSW,237,1.8,4.5,71,0.00,NA,NA,-99.99,BCS,2013-05-06 02:00:00,
2013-05-05 19:05:00,64.9,55.0,30.63,SSW,197,1.2,3.9,71,0.00,NA,NA,-99.99,BCS,2013-05-06 02:05:00,
2013-05-05 19:10:00,64.9,55.0,30.63,South,177,2.1,3.6,71,0.00,NA,NA,-99.99,BCS,2013-05-06 02:10:00,
2013-05-05 19:15:00,64.1,54.0,30.63,SSE,157,1.8,8.1,71,0.00,NA,NA,-99.99,BCS,2013-05-06 02:15:00,
2013-05-05 19:20:00,64.0,55.0,30.63,South,183,4.5,6.0,72,0.00,NA,NA,-99.99,BCS,2013-05-06 02:20:00,
2013-05-05 19:25:00,64.5,54.0,30.63,SSW,212,3.0,5.7,71,0.00,NA,NA,-99.99,BCS,2013-05-06 02:25:00,
2013-05-05 19:30:00,64.8,55.0,30.63,SSW,209,4.5,5.1,71,0.00,NA,NA,-99.99,BCS,2013-05-06 02:30:00,
2013-05-05 19:35:00,64.8,55.0,30.63,SSE,162,0.6,4.8,70,0.00,NA,NA,-99.99,BCS,2013-05-06 02:35:00,
2013-05-05 19:45:00,64.3,54.0,30.63,South,171,4.2,5.1,70,0.00,NA,NA,-99.99,BCS,2013-05-06 02:45:00,
2013-05-05 19:50:00,64.7,55.0,30.64,SSW,202,2.1,5.4,70,0.00,NA,NA,-99.99,BCS,2013-05-06 02:50:00,
2013-05-05 19:55:00,65.0,55.0,30.64,SW,222,0.6,4.2,69,0.00,NA,NA,-99.99,BCS,2013-05-06 02:55:00,
2013-05-05 20:05:00,64.7,55.0,30.64,SSE,168,2.1,2.4,70,0.00,NA,NA,-99.99,BCS,2013-05-06 03:05:00,
2013-05-05 20:10:00,64.2,54.0,30.64,SSW,205,1.2,2.7,71,0.00,NA,NA,-99.99,BCS,2013-05-06 03:10:00,
2013-05-05 20:15:00,64.1,54.0,30.65,SSE,158,1.2,2.7,71,0.00,NA,NA,-99.99,BCS,2013-05-06 03:15:00,
2013-05-05 20:20:00,64.1,55.0,30.65,SSE,166,2.4,4.2,72,0.00,NA,NA,-99.99,BCS,2013-05-06 03:20:00,
2013-05-05 20:25:00,64.2,54.0,30.65,West,269,1.2,3.6,71,0.00,NA,NA,-99.99,BCS,2013-05-06 03:25:00,
2013-05-05 20:30:00,64.1,54.0,30.65,SSW,202,2.4,3.3,71,0.00,NA,NA,-99.99,BCS,2013-05-06 03:30:00,
2013-05-05 20:35:00,63.8,54.0,30.65,SSE,165,1.5,3.9,71,0.00,NA,NA,-99.99,BCS,2013-05-06 03:35:00,
2013-05-05 20:40:00,63.8,55.0,30.65,South,184,0.9,2.4,72,0.00,NA,NA,-99.99,BCS,2013-05-06 03:40:00,
2013-05-05 20:45:00,63.5,55.0,30.65,South,170,3.0,4.5,72,0.00,NA,NA,-99.99,BCS,2013-05-06 03:45:00,
2013-05-05 20:50:00,63.6,55.0,30.65,SSW,207,1.8,4.2,72,0.00,NA,NA,-99.99,BCS,2013-05-06 03:50:00,
2013-05-05 21:00:00,63.8,55.0,30.65,SSE,164,1.5,3.3,72,0.00,NA,NA,-99.99,BCS,2013-05-06 04:00:00,
2013-05-05 21:05:00,63.7,55.0,30.65,SSE,158,2.4,3.9,73,0.00,NA,NA,-99.99,BCS,2013-05-06 04:05:00,
2013-05-05 21:10:00,63.6,55.0,30.66,SSW,210,2.1,7.5,74,0.00,NA,NA,-99.99,BCS,2013-05-06 04:10:00,
2013-05-05 21:15:00,63.2,55.0,30.66,South,171,3.9,7.2,75,0.00,NA,NA,-99.99,BCS,2013-05-06 04:15:00,
2013-05-05 21:20:00,63.1,55.0,30.66,SSW,211,2.4,7.2,75,0.00,NA,NA,-99.99,BCS,2013-05-06 04:20:00,
2013-05-05 21:25:00,63.0,55.0,30.66,South,173,3.3,4.8,76,0.00,NA,NA,-99.99,BCS,2013-05-06 04:25:00,
2013-05-05 21:30:00,62.7,56.0,30.67,South,181,3.0,6.9,77,0.00,NA,NA,-99.99,BCS,2013-05-06 04:30:00,
2013-05-05 21:40:00,62.3,55.0,30.67,SSW,204,6.0,10.5,79,0.00,NA,NA,-99.99,BCS,2013-05-06 04:40:00,
2013-05-05 21:45:00,62.2,56.0,30.67,SSE,147,2.1,10.5,80,0.00,NA,NA,-99.99,BCS,2013-05-06 04:45:00,
2013-05-05 21:50:00,62.5,56.0,30.67,SSE,166,0.9,4.2,79,0.00,NA,NA,-99.99,BCS,2013-05-06 04:50:00,
2013-05-05 21:55:00,62.3,55.0,30.67,South,171,2.1,6.0,79,0.00,NA,NA,-99.99,BCS,2013-05-06 04:55:00,
2013-05-05 22:00:00,62.4,55.0,30.67,South,172,1.5,6.0,79,0.00,NA,NA,-99.99,BCS,2013-05-06 05:00:00,
2013-05-05 22:05:00,62.5,57.0,30.67,South,176,3.3,5.7,78,0.00,NA,NA,-99.99,BCS,2013-05-06 05:05:00,
2013-05-05 22:10:00,62.2,55.0,30.67,SSE,164,2.1,6.6,78,0.00,NA,NA,-99.99,BCS,2013-05-06 05:10:00,
2013-05-05 22:15:00,62.4,55.0,30.68,South,171,3.3,5.4,78,0.00,NA,NA,-99.99,BCS,2013-05-06 05:15:00,
2013-05-05 22:20:00,62.4,55.0,30.68,SSE,168,2.1,5.1,78,0.00,NA,NA,-99.99,BCS,2013-05-06 05:20:00,
2013-05-05 22:25:00,62.2,55.0,30.68,SE,136,1.8,6.0,79,0.00,NA,NA,-99.99,BCS,2013-05-06 05:25:00,
2013-05-05 22:30:00,62.4,55.0,30.68,South,172,2.1,5.4,79,0.00,NA,NA,-99.99,BCS,2013-05-06 05:30:00,
2013-05-05 22:35:00,62.1,55.0,30.68,South,185,3.3,7.5,78,0.00,NA,NA,-99.99,BCS,2013-05-06 05:35:00,
2013-05-05 22:40:00,62.1,55.0,30.67,South,177,2.7,7.5,79,0.00,NA,NA,-99.99,BCS,2013-05-06 05:40:00,
2013-05-05 22:45:00,62.0,55.0,30.68,SSW,199,3.3,9.0,78,0.00,NA,NA,-99.99,BCS,2013-05-06 05:45:00,
2013-05-05 22:50:00,61.9,55.0,30.68,SSE,163,4.5,9.0,78,0.00,NA,NA,-99.99,BCS,2013-05-06 05:50:00,
2013-05-05 23:00:00,62.2,55.0,30.68,South,179,1.8,7.2,78,0.00,NA,NA,-99.99,BCS,2013-05-06 06:00:00,
2013-05-05 23:05:00,62.3,55.0,30.69,SSW,193,3.6,7.2,79,0.00,NA,NA,-99.99,BCS,2013-05-06 06:05:00,
2013-05-05 23:10:00,61.9,55.0,30.69,SW,221,8.7,8.7,78,0.00,NA,NA,-99.99,BCS,2013-05-06 06:10:00,
2013-05-05 23:15:00,61.8,56.0,30.69,SW,214,3.0,8.7,80,0.00,NA,NA,-99.99,BCS,2013-05-06 06:15:00,
2013-05-05 23:20:00,61.9,56.0,30.69,South,181,2.4,4.5,79,0.00,NA,NA,-99.99,BCS,2013-05-06 06:20:00,
2013-05-05 23:30:00,61.7,55.0,30.69,SSE,162,2.7,3.9,79,0.00,NA,NA,-99.99,BCS,2013-05-06 06:30:00,
2013-05-05 23:35:00,61.5,56.0,30.69,South,185,4.5,7.5,80,0.00,NA,NA,-99.99,BCS,2013-05-06 06:35:00,
2013-05-05 23:40:00,61.9,56.0,30.70,SSE,164,2.7,7.5,80,0.00,NA,NA,-99.99,BCS,2013-05-06 06:40:00,
2013-05-05 23:45:00,61.9,55.0,30.70,SSW,194,2.1,4.2,79,0.00,NA,NA,-99.99,BCS,2013-05-06 06:45:00,
2013-05-05 23:50:00,61.6,55.0,30.70,South,187,2.4,5.1,79,0.00,NA,NA,-99.99,BCS,2013-05-06 06:50:00,
2013-05-05 23:55:00,61.5,55.0,30.70,South,183,2.7,7.2,80,0.00,NA,NA,-99.99,BCS,2013-05-06 06:55:00,